Home   Weather   Durham   Past weeks

Flag for USA Past Weather in Durham, North Carolina, USA — Yesterday and Last 2 Weeks

Now
74 °F

Passing clouds.


Feels Like: 73 °F
Forecast: 66 / 74 °F
Wind: 3 mph from South

Location: Raleigh-Durham International Airport

Current Time: Sep 24, 2016 at 11:46:31 PM

Latest Report: Sep 24, 2016 at 10:51 PM


Visibility: 10 mi

Pressure: 30.03 "Hg

Humidity: 85%

Dew Point: 69 °F

Location of DurhamLocation

Past Weather in Durham — Graph

°F

Durham Temperature Yesterday

Maximum temperature yesterday: 83 °F (at 5:51 PM)
Minimum temperature yesterday: 69 °F (at 11:51 PM)
Average temperature yesterday: 75 °F

High & Low Weather Summary for the Past Weeks

 TemperatureHumidityPressure
High92 °F (Sep 10, 2:51 PM)100% (Sep 18, 6:51 AM)30.24 "Hg (Sep 18, 6:51 AM)
Low65 °F (Sep 24, 4:51 AM)33% (Sep 14, 2:51 PM)29.93 "Hg (Sep 19, 2:51 PM)
Average77 °F77%30.07 "Hg
* Reported Sep 9 9:51 PM — Sep 24 9:51 PM, Durham, Weather by CustomWeather, © 2016

Note: Actual official high and low records may vary slightly from our data, if they occured in-between our weather recording intervals... More about our weather records

Advertising

Durham Weather History for the Previous 24 Hours

Scroll right to see more
 ConditionsComfort  
Time TempWeatherWind HumidityBarometerVisibility
9:51 PM
Sat, Sep 24
74 °FPassing clouds.No wind88%30.03 "Hg10 mi
8:51 PM77 °FPassing clouds.No wind79%30.03 "Hg10 mi
7:51 PM76 °FPassing clouds.No wind85%30.01 "Hg10 mi
6:51 PM83 °FPassing clouds.No wind61%30.01 "Hg10 mi
5:51 PM89 °FPassing clouds.No wind42%30.01 "Hg10 mi
4:51 PM89 °FPassing clouds.3 mph45%30.00 "Hg10 mi
3:51 PM91 °FPassing clouds.3 mph41%30.00 "Hg10 mi
2:51 PM91 °FPassing clouds.5 mph39%30.01 "Hg10 mi
1:51 PM89 °FPassing clouds.No wind41%30.03 "Hg10 mi
12:51 PM88 °FPassing clouds.3 mph46%30.05 "Hg10 mi
11:51 AM85 °FSunny.No wind51%30.06 "Hg10 mi
10:51 AM82 °FSunny.No wind65%30.06 "Hg10 mi
9:51 AM79 °FSunny.3 mph74%30.06 "Hg10 mi
8:51 AM71 °FSunny.No wind96%30.06 "Hg10 mi
7:51 AM67 °FSunny.No wind100%30.06 "Hg10 mi
6:51 AM66 °FPassing clouds.No wind100%30.03 "Hg8 mi
5:51 AM66 °FFog.No wind96%30.03 "Hg6 mi
4:51 AM65 °FFog.No wind97%30.03 "Hg6 mi
3:51 AM66 °FFog.No wind96%30.03 "Hg6 mi
2:51 AM67 °FFog.No wind97%30.03 "Hg6 mi
1:51 AM68 °FFog.No wind96%30.03 "Hg6 mi
12:51 AM68 °FFog.No wind96%30.02 "Hg6 mi
11:51 PM
Fri, Sep 23
69 °FFog.No wind96%30.02 "Hg6 mi
Weather by CustomWeather, © 2016

See weather overviewHow to use our weather pages